Location: Miles
(41.4492°N, 81.6087°W)
Time: 22:18:52
(UTC+00:00)

Courier 1B Rocket - Pass Details

Date: 18 September 2024
Orbit: 920 x 1201 km, 28.2° (Epoch: 09 October)

Event Time Altitude Azimuth Distance (km) Brightness Sun altitude
Rises 22:05:01 0° 249° (WSW) 3,656 9.8 14.9°
Reaches altitude 10° 22:08:01 10° 237° (WSW) 2,748 8.9 14.4°
Maximum altitude 22:13:26 26° 182° (S) 1,892 6.8 13.4°
Drops below altitude 10° 22:19:08 10° 129° (SE) 2,916 7.1 12.3°
Sets 22:22:26 0° 117° (ESE) 3,923 7.7 11.7°
